Dubuque, IA

12:09 AM CDT on July 22, 2017 (GMT -0500)
Dubuque Regional

Weather History for KDBQ - April, 2014

Change the Weather History Date:

Thursday, April 10, 2014

  Actual Average Record
Temperature  
Mean Temperature 53 °F 46 °F  
Max Temperature 65 °F 56 °F 92 °F (1930)
Min Temperature 40 °F 36 °F 18 °F (1989)
Degree Days  
Heating Degree Days 12 19  
Month to date heating degree days 224 208  
Since 1 July heating degree days 7759 6519  
Cooling Degree Days 0 0  
Month to date cooling degree days 0 0  
Year to date cooling degree days 0 0  
Growing Degree Days 2 (Base 50)    
Moisture  
Dew Point 29 °F    
Average Humidity 45    
Maximum Humidity 73    
Minimum Humidity 16    
Precipitation  
Precipitation 0.00 in 0.12 in 1.64 in (1947)
Month to date precipitation 0.16 1.10  
Year to date precipitation 3.78 6.12  
Snow  
Snow 0.00 in 0.10 in - ()
Month to date snowfall 0.0 1.1  
Since 1 July snowfall 62.6 41.0  
Snow Depth 0.00 in    
Sea Level Pressure  
Sea Level Pressure 29.79 in    
Wind  
Wind Speed 13 mph (WNW)    
Max Wind Speed 24 mph    
Max Gust Speed 30 mph    
Visibility 10 miles    
Events      
T = Trace of Precipitation, MM = Missing Value Source: NWS Daily Summary

Daily Weather History Graph

Daily Weather History Graph

Search for Another Location

Airport or City:

Trip Planner

Search our weather history database for the weather conditions in past years. The results will help you decide how hot, cold, wet, or windy it might be!

Date:

Astronomy

Apr. 10, 2014 Rise Set
Actual Time 6:30 AM CDT 7:38 PM CDT
Civil Twilight 6:01 AM CDT 8:07 PM CDT
Nautical Twilight 5:26 AM CDT 8:42 PM CDT
Astronomical Twilight 4:50 AM CDT 9:18 PM CDT
Moon 3:18 PM CDT (4/10) 3:58 AM CDT (4/10)
Length of Visible Light 14h 06m
Length of Day
13h 08m
Waxing Gibbous, 80% of the Moon is Illuminated
Apr 10
Waxing Gibbous
Apr 15
Full
Apr 22
Last Quarter
Apr 29
New
May 6
First Quarter

Hourly Weather History & Observations

Time (CDT) Temp. Windchill Dew Point Humidity Pressure Visibility Wind Dir Wind Speed Gust Speed Precip Events Conditions
12:53 AM 48.9 °F - 32.0 °F 52% 29.71 in 10.0 mi South 15.0 mph - N/A   Clear
1:53 AM 48.9 °F - 32.0 °F 52% 29.68 in 10.0 mi South 15.0 mph - N/A   Clear
2:53 AM 50.0 °F - 33.1 °F 52% 29.64 in 10.0 mi South 16.1 mph - N/A   Clear
3:53 AM 48.0 °F - 33.1 °F 56% 29.61 in 10.0 mi SSW 17.3 mph - N/A   Clear
4:53 AM 48.9 °F - 34.0 °F 56% 29.64 in 10.0 mi SW 15.0 mph - N/A   Clear
5:53 AM 43.0 °F 37.7 °F 33.1 °F 68% 29.64 in 10.0 mi SSW 9.2 mph - N/A   Clear
6:53 AM 41.0 °F 37.1 °F 33.1 °F 73% 29.67 in 10.0 mi SW 5.8 mph - N/A   Clear
7:53 AM 51.1 °F - 37.0 °F 59% 29.70 in 10.0 mi WNW 10.4 mph - N/A   Clear
8:53 AM 55.4 °F - 37.4 °F 51% 29.72 in 10.0 mi NNW 15.0 mph - N/A   Clear
9:53 AM 57.0 °F - 37.9 °F 49% 29.74 in 10.0 mi North 10.4 mph - N/A   Clear
10:53 AM 59.0 °F - 35.1 °F 41% 29.76 in 10.0 mi North 16.1 mph 24.2 mph N/A   Clear
11:53 AM 60.1 °F - 25.0 °F 26% 29.79 in 10.0 mi North 19.6 mph - N/A   Clear
12:53 PM 62.1 °F - 21.9 °F 21% 29.80 in 10.0 mi North 18.4 mph 25.3 mph N/A   Clear
1:53 PM 64.0 °F - 17.1 °F 16% 29.81 in 10.0 mi NW 16.1 mph 25.3 mph N/A   Clear
2:53 PM 61.0 °F - 18.0 °F 19% 29.83 in 10.0 mi NW 17.3 mph - N/A   Clear
3:53 PM 61.0 °F - 19.9 °F 21% 29.83 in 10.0 mi WNW 19.6 mph 26.5 mph N/A   Clear
4:53 PM 59.0 °F - 24.1 °F 26% 29.86 in 10.0 mi NW 15.0 mph - N/A   Clear
5:53 PM 60.1 °F - 24.1 °F 25% 29.88 in 10.0 mi NW 18.4 mph - N/A   Clear
6:53 PM 57.9 °F - 26.1 °F 30% 29.90 in 10.0 mi WNW 12.7 mph - N/A   Clear
7:53 PM 51.1 °F - 26.1 °F 38% 29.92 in 10.0 mi WNW 10.4 mph - N/A   Clear
8:53 PM 46.0 °F 41.9 °F 27.0 °F 47% 29.95 in 10.0 mi WNW 8.1 mph - N/A   Clear
9:53 PM 46.0 °F 41.9 °F 27.0 °F 47% 29.97 in 10.0 mi WNW 8.1 mph - N/A   Clear
10:53 PM 46.9 °F - 27.0 °F 46% 29.99 in 10.0 mi WNW 5.8 mph - N/A   Clear
11:53 PM 48.0 °F - 26.1 °F 42% 29.99 in 10.0 mi NNW 10.4 mph - N/A   Clear